Year,Month,Day,Hour,Minute,Value (Times are PST for temperature in C)
2016,10,12,00,00,3.30
2016,10,12,00,01,3.30
2016,10,12,00,02,3.30
2016,10,12,00,03,3.30
2016,10,12,00,04,3.30
2016,10,12,00,05,3.40
2016,10,12,00,06,3.40
2016,10,12,00,07,3.40
2016,10,12,00,08,3.40
2016,10,12,00,09,3.40
2016,10,12,00,10,3.50
2016,10,12,00,11,3.50
2016,10,12,00,12,3.40
2016,10,12,00,13,3.40
2016,10,12,00,14,3.40
2016,10,12,00,15,3.40
2016,10,12,00,16,3.30
2016,10,12,00,17,3.30
2016,10,12,00,18,3.30
2016,10,12,00,19,3.30
2016,10,12,00,20,3.30
2016,10,12,00,21,3.30
2016,10,12,00,22,3.30
2016,10,12,00,23,3.20
2016,10,12,00,24,3.20
2016,10,12,00,25,3.20
2016,10,12,00,26,3.20
2016,10,12,00,27,3.20
2016,10,12,00,28,3.20
2016,10,12,00,29,3.10
2016,10,12,00,30,3.10
2016,10,12,00,31,3.10
2016,10,12,00,32,3.10
2016,10,12,00,33,3.10
2016,10,12,00,34,3.10
2016,10,12,00,35,3.10
2016,10,12,00,36,3.10
2016,10,12,00,37,3.10
2016,10,12,00,38,3.10
2016,10,12,00,39,3.10
2016,10,12,00,40,3.10
2016,10,12,00,41,3.10
2016,10,12,00,42,3.10
2016,10,12,00,43,3.10
2016,10,12,00,44,3.10
2016,10,12,00,45,3.10
2016,10,12,00,46,3.10
2016,10,12,00,47,3.10
2016,10,12,00,48,3.10
2016,10,12,00,49,3.00
2016,10,12,00,50,3.00
2016,10,12,00,51,3.00
2016,10,12,00,52,3.00
2016,10,12,00,53,3.00
2016,10,12,00,54,3.00
2016,10,12,00,55,3.00
2016,10,12,00,56,3.00
2016,10,12,00,57,3.00
2016,10,12,00,58,3.00
2016,10,12,00,59,3.00
2016,10,12,01,00,3.00
2016,10,12,01,01,3.00
2016,10,12,01,02,3.00
2016,10,12,01,03,3.00
2016,10,12,01,04,3.00
2016,10,12,01,05,3.00
2016,10,12,01,06,3.00
2016,10,12,01,07,3.00
2016,10,12,01,08,2.90
2016,10,12,01,09,2.90
2016,10,12,01,10,2.90
2016,10,12,01,11,2.90
2016,10,12,01,12,2.90
2016,10,12,01,13,3.00
2016,10,12,01,14,3.00
2016,10,12,01,15,3.00
2016,10,12,01,16,3.00
2016,10,12,01,17,3.00
2016,10,12,01,18,3.00
2016,10,12,01,19,3.00
2016,10,12,01,20,2.90
2016,10,12,01,21,2.90
2016,10,12,01,22,2.90
2016,10,12,01,23,2.90
2016,10,12,01,24,2.90
2016,10,12,01,25,2.90
2016,10,12,01,26,2.90
2016,10,12,01,27,2.90
2016,10,12,01,28,2.90
2016,10,12,01,29,2.90
2016,10,12,01,30,2.90
2016,10,12,01,31,2.90
2016,10,12,01,32,2.90
2016,10,12,01,33,2.80
2016,10,12,01,34,2.80
2016,10,12,01,35,2.80
2016,10,12,01,36,2.80
2016,10,12,01,37,2.80
2016,10,12,01,38,2.80
2016,10,12,01,39,2.80
2016,10,12,01,40,2.70
2016,10,12,01,41,2.70
2016,10,12,01,42,2.70
2016,10,12,01,43,2.70
2016,10,12,01,44,2.70
2016,10,12,01,45,2.70
2016,10,12,01,46,2.70
2016,10,12,01,47,2.70
2016,10,12,01,48,2.70
2016,10,12,01,49,2.70
2016,10,12,01,50,2.70
2016,10,12,01,51,2.70
2016,10,12,01,52,2.70
2016,10,12,01,53,2.70
2016,10,12,01,54,2.70
2016,10,12,01,55,2.70
2016,10,12,01,56,2.70
2016,10,12,01,57,2.70
2016,10,12,01,58,2.70
2016,10,12,01,59,2.70
2016,10,12,02,00,2.70
2016,10,12,02,01,2.70
2016,10,12,02,02,2.70
2016,10,12,02,03,2.70
2016,10,12,02,04,2.80
2016,10,12,02,05,2.80
2016,10,12,02,06,2.80
2016,10,12,02,07,2.80
2016,10,12,02,08,2.80
2016,10,12,02,09,2.80
2016,10,12,02,10,2.80
2016,10,12,02,11,2.80
2016,10,12,02,12,2.80
2016,10,12,02,13,2.80
2016,10,12,02,14,2.80
2016,10,12,02,15,2.80
2016,10,12,02,16,2.80
2016,10,12,02,17,2.80
2016,10,12,02,18,2.80
2016,10,12,02,19,2.90
2016,10,12,02,20,2.90
2016,10,12,02,21,2.90
2016,10,12,02,22,2.90
2016,10,12,02,23,2.90
2016,10,12,02,24,2.90
2016,10,12,02,25,2.90
2016,10,12,02,26,3.00
2016,10,12,02,27,3.00
2016,10,12,02,28,3.00
2016,10,12,02,29,3.00
2016,10,12,02,30,3.00
2016,10,12,02,31,3.10
2016,10,12,02,32,3.10
2016,10,12,02,33,3.10
2016,10,12,02,34,3.10
2016,10,12,02,35,3.10
2016,10,12,02,36,3.10
2016,10,12,02,37,3.10
2016,10,12,02,38,3.10
2016,10,12,02,39,3.10
2016,10,12,02,40,3.20
2016,10,12,02,41,3.20
2016,10,12,02,42,3.20
2016,10,12,02,43,3.20
2016,10,12,02,44,3.20
2016,10,12,02,45,3.20
2016,10,12,02,46,3.20
2016,10,12,02,47,3.20
2016,10,12,02,48,3.20
2016,10,12,02,49,3.10
2016,10,12,02,50,3.10
2016,10,12,02,51,3.00
2016,10,12,02,52,3.00
2016,10,12,02,53,2.90
2016,10,12,02,54,2.90
2016,10,12,02,55,2.90
2016,10,12,02,56,2.90
2016,10,12,02,57,2.80
2016,10,12,02,58,2.80
2016,10,12,02,59,2.80
2016,10,12,03,00,2.80
2016,10,12,03,01,2.80
2016,10,12,03,02,2.80
2016,10,12,03,03,2.80
2016,10,12,03,04,2.80
2016,10,12,03,05,2.80
2016,10,12,03,06,2.80
2016,10,12,03,07,2.80
2016,10,12,03,08,2.80
2016,10,12,03,09,2.80
2016,10,12,03,10,2.80
2016,10,12,03,11,2.80
2016,10,12,03,12,2.80
2016,10,12,03,13,2.70
2016,10,12,03,14,2.70
2016,10,12,03,15,2.70
2016,10,12,03,16,2.70
2016,10,12,03,17,2.70
2016,10,12,03,18,2.70
2016,10,12,03,19,2.70
2016,10,12,03,20,2.70
2016,10,12,03,21,2.80
2016,10,12,03,22,2.80
2016,10,12,03,23,2.80
2016,10,12,03,24,2.80
2016,10,12,03,25,2.80
2016,10,12,03,26,2.80
2016,10,12,03,27,2.80
2016,10,12,03,28,2.80
2016,10,12,03,29,2.80
2016,10,12,03,30,2.90
2016,10,12,03,31,2.90
2016,10,12,03,32,2.90
2016,10,12,03,33,2.90
2016,10,12,03,34,2.90
2016,10,12,03,35,2.90
2016,10,12,03,36,2.80
2016,10,12,03,37,2.80
2016,10,12,03,38,2.80
2016,10,12,03,39,2.80
2016,10,12,03,40,2.70
2016,10,12,03,41,2.70
2016,10,12,03,42,2.80
2016,10,12,03,43,2.80
2016,10,12,03,44,2.80
2016,10,12,03,45,2.80
2016,10,12,03,46,2.80
2016,10,12,03,47,2.80
2016,10,12,03,48,2.90
2016,10,12,03,49,2.80
2016,10,12,03,50,2.80
2016,10,12,03,51,2.80
2016,10,12,03,52,2.80
2016,10,12,03,53,2.80
2016,10,12,03,54,2.80
2016,10,12,03,55,2.80
2016,10,12,03,56,2.90
2016,10,12,03,57,2.90
2016,10,12,03,58,2.90
2016,10,12,03,59,2.90
2016,10,12,04,00,2.90
2016,10,12,04,01,2.90
2016,10,12,04,02,2.90
2016,10,12,04,03,2.90
2016,10,12,04,04,2.80
2016,10,12,04,05,2.80
2016,10,12,04,06,2.80
2016,10,12,04,07,2.80
2016,10,12,04,08,2.80
2016,10,12,04,09,2.80
2016,10,12,04,10,2.80
2016,10,12,04,11,2.80
2016,10,12,04,12,2.80
2016,10,12,04,13,2.80
2016,10,12,04,14,2.80
2016,10,12,04,15,2.80
2016,10,12,04,16,2.80
2016,10,12,04,17,2.80
2016,10,12,04,18,2.80
2016,10,12,04,19,2.80
2016,10,12,04,20,2.70
2016,10,12,04,21,2.70
2016,10,12,04,22,2.70
2016,10,12,04,23,2.70
2016,10,12,04,24,2.70
2016,10,12,04,25,2.70
2016,10,12,04,26,2.60
2016,10,12,04,27,2.60
2016,10,12,04,28,2.60
2016,10,12,04,29,2.50
2016,10,12,04,30,2.50
2016,10,12,04,31,2.40
2016,10,12,04,32,2.40
2016,10,12,04,33,2.40
2016,10,12,04,34,2.40
2016,10,12,04,35,2.40
2016,10,12,04,36,2.40
2016,10,12,04,37,2.30
2016,10,12,04,38,2.30
2016,10,12,04,39,2.30
2016,10,12,04,40,2.30
2016,10,12,04,41,2.30
2016,10,12,04,42,2.30
2016,10,12,04,43,2.20
2016,10,12,04,44,2.20
2016,10,12,04,45,2.20
2016,10,12,04,46,2.20
2016,10,12,04,47,2.20
2016,10,12,04,48,2.20
2016,10,12,04,49,2.20
2016,10,12,04,50,2.20
2016,10,12,04,51,2.20
2016,10,12,04,52,2.20
2016,10,12,04,53,2.20
2016,10,12,04,54,2.20
2016,10,12,04,55,2.20
2016,10,12,04,56,2.20
2016,10,12,04,57,2.20
2016,10,12,04,58,2.20
2016,10,12,04,59,2.10
2016,10,12,05,00,2.10
2016,10,12,05,01,2.10
2016,10,12,05,02,2.10
2016,10,12,05,03,2.10
2016,10,12,05,04,2.10
2016,10,12,05,05,2.10
2016,10,12,05,06,2.10
2016,10,12,05,07,2.10
2016,10,12,05,08,2.10
2016,10,12,05,09,2.10
2016,10,12,05,10,2.10
2016,10,12,05,11,2.10
2016,10,12,05,12,2.10
2016,10,12,05,13,2.10
2016,10,12,05,14,2.10
2016,10,12,05,15,2.10
2016,10,12,05,16,2.10
2016,10,12,05,17,2.10
2016,10,12,05,18,2.10
2016,10,12,05,19,2.10
2016,10,12,05,20,2.10
2016,10,12,05,21,2.20
2016,10,12,05,22,2.20
2016,10,12,05,23,2.20
2016,10,12,05,24,2.20
2016,10,12,05,25,2.10
2016,10,12,05,26,2.10
2016,10,12,05,27,2.10
2016,10,12,05,28,2.00
2016,10,12,05,29,2.00
2016,10,12,05,30,1.90
2016,10,12,05,31,1.90
2016,10,12,05,32,1.90
2016,10,12,05,33,1.90
2016,10,12,05,34,1.90
2016,10,12,05,35,1.90
2016,10,12,05,36,1.90
2016,10,12,05,37,1.90
2016,10,12,05,38,1.80
2016,10,12,05,39,1.80
2016,10,12,05,40,1.80
2016,10,12,05,41,1.80
2016,10,12,05,42,1.80
2016,10,12,05,43,1.80
2016,10,12,05,44,1.80
2016,10,12,05,45,1.80
2016,10,12,05,46,1.80
2016,10,12,05,47,1.80
2016,10,12,05,48,1.80
2016,10,12,05,49,1.80
2016,10,12,05,50,1.80
2016,10,12,05,51,1.80
2016,10,12,05,52,1.80
2016,10,12,05,53,1.80
2016,10,12,05,54,1.90
2016,10,12,05,55,1.90
2016,10,12,05,56,1.90
2016,10,12,05,57,2.00
2016,10,12,05,58,2.00
2016,10,12,05,59,2.10
2016,10,12,06,00,2.30
2016,10,12,06,01,2.40
2016,10,12,06,02,2.40
2016,10,12,06,03,2.50
2016,10,12,06,04,2.60
2016,10,12,06,05,2.60
2016,10,12,06,06,2.70
2016,10,12,06,07,2.60
2016,10,12,06,08,2.70
2016,10,12,06,09,2.70
2016,10,12,06,10,2.70
2016,10,12,06,11,2.80
2016,10,12,06,12,2.80
2016,10,12,06,13,2.90
2016,10,12,06,14,3.00
2016,10,12,06,15,3.00
2016,10,12,06,16,3.10
2016,10,12,06,17,3.10
2016,10,12,06,18,3.20
2016,10,12,06,19,3.20
2016,10,12,06,20,3.20
2016,10,12,06,21,3.20
2016,10,12,06,22,3.20
2016,10,12,06,23,3.20
2016,10,12,06,24,3.20
2016,10,12,06,25,3.30
2016,10,12,06,26,3.30
2016,10,12,06,27,3.30
2016,10,12,06,28,3.30
2016,10,12,06,29,3.30
2016,10,12,06,30,3.30
2016,10,12,06,31,3.40
2016,10,12,06,32,3.40
2016,10,12,06,33,3.50
2016,10,12,06,34,3.50
2016,10,12,06,35,3.60
2016,10,12,06,36,3.60
2016,10,12,06,37,3.70
2016,10,12,06,38,3.70
2016,10,12,06,39,3.70
2016,10,12,06,40,3.70
2016,10,12,06,41,3.70
2016,10,12,06,42,3.70
2016,10,12,06,43,3.70
2016,10,12,06,44,3.80
2016,10,12,06,45,3.80
2016,10,12,06,46,3.80
2016,10,12,06,47,3.80
2016,10,12,06,48,3.80
2016,10,12,06,49,3.80
2016,10,12,06,50,3.90
2016,10,12,06,51,3.90
2016,10,12,06,52,3.90
2016,10,12,06,53,4.00
2016,10,12,06,54,4.00
2016,10,12,06,55,4.10
2016,10,12,06,56,4.20
2016,10,12,06,57,4.20
2016,10,12,06,58,4.30
2016,10,12,06,59,4.30
2016,10,12,07,00,4.40
2016,10,12,07,01,4.40
2016,10,12,07,02,4.40
2016,10,12,07,03,4.40
2016,10,12,07,04,4.40
2016,10,12,07,05,4.40
2016,10,12,07,06,4.40
2016,10,12,07,07,4.40
2016,10,12,07,08,4.50
2016,10,12,07,09,4.50
2016,10,12,07,10,4.60
2016,10,12,07,11,4.60
2016,10,12,07,12,4.60
2016,10,12,07,13,4.60
2016,10,12,07,14,4.60
2016,10,12,07,15,4.70
2016,10,12,07,16,4.70
2016,10,12,07,17,4.70
2016,10,12,07,18,4.70
2016,10,12,07,19,4.70
2016,10,12,07,20,4.70
2016,10,12,07,21,4.60
2016,10,12,07,22,4.70
2016,10,12,07,23,4.70
2016,10,12,07,24,4.60
2016,10,12,07,25,4.60
2016,10,12,07,26,4.60
2016,10,12,07,27,4.60
2016,10,12,07,28,4.60
2016,10,12,07,29,4.60
2016,10,12,07,30,4.70
2016,10,12,07,31,4.70
2016,10,12,07,32,4.70
2016,10,12,07,33,4.60
2016,10,12,07,34,4.60
2016,10,12,07,35,4.60
2016,10,12,07,36,4.60
2016,10,12,07,37,4.60
2016,10,12,07,38,4.60
2016,10,12,07,39,4.60
2016,10,12,07,40,4.60
2016,10,12,07,41,4.60
2016,10,12,07,42,4.60
2016,10,12,07,43,4.70
2016,10,12,07,44,4.70
2016,10,12,07,45,4.70
2016,10,12,07,46,4.70
2016,10,12,07,47,4.70
2016,10,12,07,48,4.70
2016,10,12,07,49,4.70
2016,10,12,07,50,4.80
2016,10,12,07,51,4.80
2016,10,12,07,52,4.80
2016,10,12,07,53,4.80
2016,10,12,07,54,4.90
2016,10,12,07,55,4.90
2016,10,12,07,56,4.90
2016,10,12,07,57,5.00
2016,10,12,07,58,5.00
2016,10,12,07,59,4.90
2016,10,12,08,00,4.90
2016,10,12,08,01,4.90
2016,10,12,08,02,4.90
2016,10,12,08,03,4.90
2016,10,12,08,04,5.00
2016,10,12,08,05,5.00
2016,10,12,08,06,5.10
2016,10,12,08,07,5.10
2016,10,12,08,08,5.10
2016,10,12,08,09,5.20
2016,10,12,08,10,5.20
2016,10,12,08,11,5.20
2016,10,12,08,12,5.20
2016,10,12,08,13,5.30
2016,10,12,08,14,5.30
2016,10,12,08,15,5.30
2016,10,12,08,16,5.30
2016,10,12,08,17,5.30
2016,10,12,08,18,5.40
2016,10,12,08,19,5.40
2016,10,12,08,20,5.40
2016,10,12,08,21,5.40
2016,10,12,08,22,5.40
2016,10,12,08,23,5.40
2016,10,12,08,24,5.40
2016,10,12,08,25,5.40
2016,10,12,08,26,5.40
2016,10,12,08,27,5.50
2016,10,12,08,28,5.50
2016,10,12,08,29,5.60
2016,10,12,08,30,5.60
2016,10,12,08,31,5.60
2016,10,12,08,32,5.60
2016,10,12,08,33,5.70
2016,10,12,08,34,5.70
2016,10,12,08,35,5.70
2016,10,12,08,36,5.70
2016,10,12,08,37,5.80
2016,10,12,08,38,5.80
2016,10,12,08,39,5.80
2016,10,12,08,40,5.90
2016,10,12,08,41,5.90
2016,10,12,08,42,5.90
2016,10,12,08,43,5.90
2016,10,12,08,44,6.00
2016,10,12,08,45,6.00
2016,10,12,08,46,6.10
2016,10,12,08,47,6.10
2016,10,12,08,48,6.20
2016,10,12,08,49,6.20
2016,10,12,08,50,6.20
2016,10,12,08,51,6.30
2016,10,12,08,52,6.40
2016,10,12,08,53,6.40
2016,10,12,08,54,6.50
2016,10,12,08,55,6.60
2016,10,12,08,56,6.70
2016,10,12,08,57,6.80
2016,10,12,08,58,6.80
2016,10,12,08,59,6.90
2016,10,12,09,00,6.90
2016,10,12,09,01,7.00
2016,10,12,09,02,7.00
2016,10,12,09,03,7.10
2016,10,12,09,04,7.10
2016,10,12,09,05,7.10
2016,10,12,09,06,7.20
2016,10,12,09,07,7.20
2016,10,12,09,08,7.30
2016,10,12,09,09,7.30
2016,10,12,09,10,7.40
2016,10,12,09,11,7.40
2016,10,12,09,12,7.40
2016,10,12,09,13,7.50
2016,10,12,09,14,7.50
2016,10,12,09,15,7.60
2016,10,12,09,16,7.60
2016,10,12,09,17,7.60
2016,10,12,09,18,7.70
2016,10,12,09,19,7.70
2016,10,12,09,20,7.70
2016,10,12,09,21,7.70
2016,10,12,09,22,7.80
2016,10,12,09,23,7.80
2016,10,12,09,24,7.80
2016,10,12,09,25,7.90
2016,10,12,09,26,7.90
2016,10,12,09,27,8.00
2016,10,12,09,28,8.00
2016,10,12,09,29,8.00
2016,10,12,09,30,8.10
2016,10,12,09,31,8.10
2016,10,12,09,32,8.20
2016,10,12,09,33,8.30
2016,10,12,09,34,8.30
2016,10,12,09,35,8.30
2016,10,12,09,36,8.40
2016,10,12,09,37,8.50
2016,10,12,09,38,8.60
2016,10,12,09,39,8.60
2016,10,12,09,40,8.70
2016,10,12,09,41,8.80
2016,10,12,09,42,8.90
2016,10,12,09,43,8.90
2016,10,12,09,44,9.00
2016,10,12,09,45,9.00
2016,10,12,09,46,9.10
2016,10,12,09,47,9.20
2016,10,12,09,48,9.20
2016,10,12,09,49,9.30
2016,10,12,09,50,9.30
2016,10,12,09,51,9.40
2016,10,12,09,52,9.40
2016,10,12,09,53,9.50
2016,10,12,09,54,9.60
2016,10,12,09,55,9.60
2016,10,12,09,56,9.70
2016,10,12,09,57,9.70
2016,10,12,09,58,9.80
2016,10,12,09,59,9.80
2016,10,12,10,00,9.90
2016,10,12,10,01,9.90
2016,10,12,10,02,10.00
2016,10,12,10,03,10.00
2016,10,12,10,04,10.00
2016,10,12,10,05,10.00
2016,10,12,10,06,10.00
2016,10,12,10,07,10.00
2016,10,12,10,08,10.10
2016,10,12,10,09,10.10
2016,10,12,10,10,10.10
2016,10,12,10,11,10.20
2016,10,12,10,12,10.20
2016,10,12,10,13,10.30
2016,10,12,10,14,10.40
2016,10,12,10,15,10.50
2016,10,12,10,16,10.50
2016,10,12,10,17,10.60
2016,10,12,10,18,10.60
2016,10,12,10,19,10.70
2016,10,12,10,20,10.80
2016,10,12,10,21,10.80
2016,10,12,10,22,10.80
2016,10,12,10,23,10.80
2016,10,12,10,24,10.80
2016,10,12,10,25,10.90
2016,10,12,10,26,10.90
2016,10,12,10,27,10.90
2016,10,12,10,28,11.00
2016,10,12,10,29,11.10
2016,10,12,10,30,11.10
2016,10,12,10,31,11.10
2016,10,12,10,32,11.10
2016,10,12,10,33,11.10
2016,10,12,10,34,11.20
2016,10,12,10,35,11.10
2016,10,12,10,36,11.10
2016,10,12,10,37,11.10
2016,10,12,10,38,11.10
2016,10,12,10,39,11.10
2016,10,12,10,40,11.10
2016,10,12,10,41,11.20
2016,10,12,10,42,11.20
2016,10,12,10,43,11.30
2016,10,12,10,44,11.30
2016,10,12,10,45,11.40
2016,10,12,10,46,11.40
2016,10,12,10,47,11.50
2016,10,12,10,48,11.50
2016,10,12,10,49,11.60
2016,10,12,10,50,11.60
2016,10,12,10,51,11.60
2016,10,12,10,52,11.60
2016,10,12,10,53,11.50
2016,10,12,10,54,11.50
2016,10,12,10,55,11.40
2016,10,12,10,56,11.40
2016,10,12,10,57,11.40
2016,10,12,10,58,11.40
2016,10,12,10,59,11.50
2016,10,12,11,00,11.60
2016,10,12,11,01,11.60
2016,10,12,11,02,11.70
2016,10,12,11,03,11.60
2016,10,12,11,04,11.60
2016,10,12,11,05,11.60
2016,10,12,11,06,11.60
2016,10,12,11,07,11.60
2016,10,12,11,08,11.60
2016,10,12,11,09,11.60
2016,10,12,11,10,11.60
2016,10,12,11,11,11.60
2016,10,12,11,12,11.60
2016,10,12,11,13,11.60
2016,10,12,11,14,11.70
2016,10,12,11,15,11.80
2016,10,12,11,16,11.80
2016,10,12,11,17,11.90
2016,10,12,11,18,11.90
2016,10,12,11,19,12.00
2016,10,12,11,20,12.00
2016,10,12,11,21,12.10
2016,10,12,11,22,12.20
2016,10,12,11,23,12.20
2016,10,12,11,24,12.20
2016,10,12,11,25,12.10
2016,10,12,11,26,12.00
2016,10,12,11,27,11.90
2016,10,12,11,28,11.90
2016,10,12,11,29,11.90
2016,10,12,11,30,11.90
2016,10,12,11,31,12.00
2016,10,12,11,32,12.10
2016,10,12,11,33,12.20
2016,10,12,11,34,12.20
2016,10,12,11,35,12.20
2016,10,12,11,36,12.20
2016,10,12,11,37,12.20
2016,10,12,11,38,12.30
2016,10,12,11,39,12.30
2016,10,12,11,40,12.30
2016,10,12,11,41,12.20
2016,10,12,11,42,12.20
2016,10,12,11,43,12.10
2016,10,12,11,44,12.10
2016,10,12,11,45,12.10
2016,10,12,11,46,12.00
2016,10,12,11,47,11.90
2016,10,12,11,48,11.90
2016,10,12,11,49,11.90
2016,10,12,11,50,11.90
2016,10,12,11,51,11.90
2016,10,12,11,52,11.90
2016,10,12,11,53,12.00
2016,10,12,11,54,12.00
2016,10,12,11,55,12.10
2016,10,12,11,56,12.10
2016,10,12,11,57,12.10
2016,10,12,11,58,12.10
2016,10,12,11,59,12.20
2016,10,12,12,00,12.20
2016,10,12,12,01,12.10
2016,10,12,12,02,12.10
2016,10,12,12,03,12.10
2016,10,12,12,04,12.10
2016,10,12,12,05,12.10
2016,10,12,12,06,12.10
2016,10,12,12,07,12.20
2016,10,12,12,08,12.20
2016,10,12,12,09,12.30
2016,10,12,12,10,12.30
2016,10,12,12,11,12.40
2016,10,12,12,12,12.40
2016,10,12,12,13,12.40
2016,10,12,12,14,12.40
2016,10,12,12,15,12.40
2016,10,12,12,16,12.50
2016,10,12,12,17,12.50
2016,10,12,12,18,12.50
2016,10,12,12,19,12.50
2016,10,12,12,20,12.50
2016,10,12,12,21,12.50
2016,10,12,12,22,12.50
2016,10,12,12,23,12.60
2016,10,12,12,24,12.70
2016,10,12,12,25,12.70
2016,10,12,12,26,12.80
2016,10,12,12,27,12.80
2016,10,12,12,28,12.90
2016,10,12,12,29,12.90
2016,10,12,12,30,12.90
2016,10,12,12,31,12.90
2016,10,12,12,32,12.90
2016,10,12,12,33,12.80
2016,10,12,12,34,12.80
2016,10,12,12,35,12.80
2016,10,12,12,36,12.80
2016,10,12,12,37,12.80
2016,10,12,12,38,12.80
2016,10,12,12,39,12.80
2016,10,12,12,40,12.90
2016,10,12,12,41,12.90
2016,10,12,12,42,12.90
2016,10,12,12,43,12.80
2016,10,12,12,44,12.80
2016,10,12,12,45,12.90
2016,10,12,12,46,12.90
2016,10,12,12,47,13.00
2016,10,12,12,48,13.00
2016,10,12,12,49,13.00
2016,10,12,12,50,12.90
2016,10,12,12,51,13.00
2016,10,12,12,52,13.00
2016,10,12,12,53,13.10
2016,10,12,12,54,13.00
2016,10,12,12,55,13.00
2016,10,12,12,56,12.90
2016,10,12,12,57,12.90
2016,10,12,12,58,12.80
2016,10,12,12,59,12.80
2016,10,12,13,00,12.70
2016,10,12,13,01,12.70
2016,10,12,13,02,12.70
2016,10,12,13,03,12.70
2016,10,12,13,04,12.70
2016,10,12,13,05,12.70
2016,10,12,13,06,12.60
2016,10,12,13,07,12.60
2016,10,12,13,08,12.70
2016,10,12,13,09,12.70
2016,10,12,13,10,12.70
2016,10,12,13,11,12.80
2016,10,12,13,12,12.90
2016,10,12,13,13,12.90
2016,10,12,13,14,12.90
2016,10,12,13,15,12.90
2016,10,12,13,16,13.00
2016,10,12,13,17,13.10
2016,10,12,13,18,13.20
2016,10,12,13,19,13.20
2016,10,12,13,20,13.30
2016,10,12,13,21,13.40
2016,10,12,13,22,13.50
2016,10,12,13,23,13.60
2016,10,12,13,24,13.50
2016,10,12,13,25,13.50
2016,10,12,13,26,13.40
2016,10,12,13,27,13.30
2016,10,12,13,28,13.30
2016,10,12,13,29,13.30
2016,10,12,13,30,13.20
2016,10,12,13,31,13.20
2016,10,12,13,32,13.10
2016,10,12,13,33,13.10
2016,10,12,13,34,13.10
2016,10,12,13,35,13.10
2016,10,12,13,36,13.10
2016,10,12,13,37,13.10
2016,10,12,13,38,13.10
2016,10,12,13,39,13.20
2016,10,12,13,40,13.20
2016,10,12,13,41,13.20
2016,10,12,13,42,13.20
2016,10,12,13,43,13.10
2016,10,12,13,44,13.10
2016,10,12,13,45,13.10
2016,10,12,13,46,13.10
2016,10,12,13,47,13.00
2016,10,12,13,48,13.00
2016,10,12,13,49,13.10
2016,10,12,13,50,13.10
2016,10,12,13,51,13.10
2016,10,12,13,52,13.00
2016,10,12,13,53,13.10
2016,10,12,13,54,13.00
2016,10,12,13,55,13.00
2016,10,12,13,56,12.90
2016,10,12,13,57,12.90
2016,10,12,13,58,13.00
2016,10,12,13,59,13.00
2016,10,12,14,00,13.10
2016,10,12,14,01,13.10
2016,10,12,14,02,13.10
2016,10,12,14,03,13.10
2016,10,12,14,04,13.10
2016,10,12,14,05,13.10
2016,10,12,14,06,13.10
2016,10,12,14,07,13.10
2016,10,12,14,08,13.10
2016,10,12,14,09,13.10
2016,10,12,14,10,13.00
2016,10,12,14,11,13.00
2016,10,12,14,12,13.00
2016,10,12,14,13,13.00
2016,10,12,14,14,13.00
2016,10,12,14,15,13.00
2016,10,12,14,16,13.10
2016,10,12,14,17,13.20
2016,10,12,14,18,13.20
2016,10,12,14,19,13.30
2016,10,12,14,20,13.40
2016,10,12,14,21,13.50
2016,10,12,14,22,13.60
2016,10,12,14,23,13.60
2016,10,12,14,24,13.60
2016,10,12,14,25,13.50
2016,10,12,14,26,13.50
2016,10,12,14,27,13.40
2016,10,12,14,28,13.40
2016,10,12,14,29,13.40
2016,10,12,14,30,13.30
2016,10,12,14,31,13.30
2016,10,12,14,32,13.40
2016,10,12,14,33,13.40
2016,10,12,14,34,13.30
2016,10,12,14,35,13.30
2016,10,12,14,36,13.30
2016,10,12,14,37,13.30
2016,10,12,14,38,13.30
2016,10,12,14,39,13.30
2016,10,12,14,40,13.20
2016,10,12,14,41,13.20
2016,10,12,14,42,13.20
2016,10,12,14,43,13.20
2016,10,12,14,44,13.20
2016,10,12,14,45,13.20
2016,10,12,14,46,13.20
2016,10,12,14,47,13.20
2016,10,12,14,48,13.20
2016,10,12,14,49,13.20
2016,10,12,14,50,13.20
2016,10,12,14,51,13.20
2016,10,12,14,52,13.20
2016,10,12,14,53,13.20
2016,10,12,14,54,13.20
2016,10,12,14,55,13.30
2016,10,12,14,56,13.30
2016,10,12,14,57,13.30
2016,10,12,14,58,13.30
2016,10,12,14,59,13.40
2016,10,12,15,00,13.40
2016,10,12,15,01,13.50
2016,10,12,15,02,13.50
2016,10,12,15,03,13.50
2016,10,12,15,04,13.50
2016,10,12,15,05,13.40
2016,10,12,15,06,13.40
2016,10,12,15,07,13.40
2016,10,12,15,08,13.40
2016,10,12,15,09,13.30
2016,10,12,15,10,13.30
2016,10,12,15,11,13.30
2016,10,12,15,12,13.20
2016,10,12,15,13,13.20
2016,10,12,15,14,13.20
2016,10,12,15,15,13.20
2016,10,12,15,16,13.20
2016,10,12,15,17,13.20
2016,10,12,15,18,13.20
2016,10,12,15,19,13.20
2016,10,12,15,20,13.20
2016,10,12,15,21,13.20
2016,10,12,15,22,13.20
2016,10,12,15,23,13.20
2016,10,12,15,24,13.20
2016,10,12,15,25,13.20
2016,10,12,15,26,13.20
2016,10,12,15,27,13.20
2016,10,12,15,28,13.30
2016,10,12,15,29,13.30
2016,10,12,15,30,13.30
2016,10,12,15,31,13.30
2016,10,12,15,32,13.40
2016,10,12,15,33,13.40
2016,10,12,15,34,13.40
2016,10,12,15,35,13.40
2016,10,12,15,36,13.40
2016,10,12,15,37,13.40
2016,10,12,15,38,13.40
2016,10,12,15,39,13.40
2016,10,12,15,40,13.40
2016,10,12,15,41,13.40
2016,10,12,15,42,13.40
2016,10,12,15,43,13.40
2016,10,12,15,44,13.40
2016,10,12,15,45,13.40
2016,10,12,15,46,13.40
2016,10,12,15,47,13.30
2016,10,12,15,48,13.40
2016,10,12,15,49,13.40
2016,10,12,15,50,13.40
2016,10,12,15,51,13.40
2016,10,12,15,52,13.40
2016,10,12,15,53,13.40
2016,10,12,15,54,13.40
2016,10,12,15,55,13.40
2016,10,12,15,56,13.40
2016,10,12,15,57,13.30
2016,10,12,15,58,13.30
2016,10,12,15,59,13.30
2016,10,12,16,00,13.30
2016,10,12,16,01,13.30
2016,10,12,16,02,13.30
2016,10,12,16,03,13.30
2016,10,12,16,04,13.30
2016,10,12,16,05,13.30
2016,10,12,16,06,13.30
2016,10,12,16,07,13.40
2016,10,12,16,08,13.40
2016,10,12,16,09,13.40
2016,10,12,16,10,13.40
2016,10,12,16,11,13.40
2016,10,12,16,12,13.40
2016,10,12,16,13,13.40
2016,10,12,16,14,13.40
2016,10,12,16,15,13.40
2016,10,12,16,16,13.40
2016,10,12,16,17,13.40
2016,10,12,16,18,13.40
2016,10,12,16,19,13.40
2016,10,12,16,20,13.40
2016,10,12,16,21,13.40
2016,10,12,16,22,13.40
2016,10,12,16,23,13.40
2016,10,12,16,24,13.40
2016,10,12,16,25,13.40
2016,10,12,16,26,13.40
2016,10,12,16,27,13.40
2016,10,12,16,28,13.40
2016,10,12,16,29,13.40
2016,10,12,16,30,13.40
2016,10,12,16,31,13.40
2016,10,12,16,32,13.40
2016,10,12,16,33,13.40
2016,10,12,16,34,13.30
2016,10,12,16,35,13.30
2016,10,12,16,36,13.30
2016,10,12,16,37,13.30
2016,10,12,16,38,13.20
2016,10,12,16,39,13.20
2016,10,12,16,40,13.10
2016,10,12,16,41,13.10
2016,10,12,16,42,13.00
2016,10,12,16,43,12.90
2016,10,12,16,44,12.90
2016,10,12,16,45,12.90
2016,10,12,16,46,12.80
2016,10,12,16,47,12.80
2016,10,12,16,48,12.80
2016,10,12,16,49,12.70
2016,10,12,16,50,12.70
2016,10,12,16,51,12.70
2016,10,12,16,52,12.70
2016,10,12,16,53,12.60
2016,10,12,16,54,12.60
2016,10,12,16,55,12.60
2016,10,12,16,56,12.60
2016,10,12,16,57,12.50
2016,10,12,16,58,12.50
2016,10,12,16,59,12.50
2016,10,12,17,00,12.40
2016,10,12,17,01,12.40
2016,10,12,17,02,12.40
2016,10,12,17,03,12.30
2016,10,12,17,04,12.30
2016,10,12,17,05,12.30
2016,10,12,17,06,12.20
2016,10,12,17,07,12.20
2016,10,12,17,08,12.10
2016,10,12,17,09,12.10
2016,10,12,17,10,12.10
2016,10,12,17,11,12.00
2016,10,12,17,12,12.00
2016,10,12,17,13,11.90
2016,10,12,17,14,11.90
2016,10,12,17,15,11.90
2016,10,12,17,16,11.90
2016,10,12,17,17,11.90
2016,10,12,17,18,11.90
2016,10,12,17,19,11.90
2016,10,12,17,20,11.90
2016,10,12,17,21,11.90
2016,10,12,17,22,11.80
2016,10,12,17,23,11.80
2016,10,12,17,24,11.80
2016,10,12,17,25,11.80
2016,10,12,17,26,11.80
2016,10,12,17,27,11.80
2016,10,12,17,28,11.80
2016,10,12,17,29,11.80
2016,10,12,17,30,11.80
2016,10,12,17,31,11.80
2016,10,12,17,32,11.80
2016,10,12,17,33,11.80
2016,10,12,17,34,11.70
2016,10,12,17,35,11.70
2016,10,12,17,36,11.70
2016,10,12,17,37,11.70
2016,10,12,17,38,11.70
2016,10,12,17,39,11.70
2016,10,12,17,40,11.70
2016,10,12,17,41,11.60
2016,10,12,17,42,11.60
2016,10,12,17,43,11.60
2016,10,12,17,44,11.60
2016,10,12,17,45,11.60